GFSFLT2_prec_radar_102.txt.gz
Reflectivity
-20 -20 -20 -20 -20 -20 -20 -20 -20 -20 -20 -20 -20 -20 -20 -20 -20 -20 -20 -20 -20 -16 15 7 22 27 30 -10 2 -17 -20 -19
-20 -20 -20 -20 -20 -20 -20 -20 -20 -20 -20 -20 -20 -20 -18 -20 -20 -20 -20 -20 -20 -20 -20 -20 8 26 25 23 -19 17 32 -6
-20 -20 -20 -20 -20 -20 -20 -20 -20 -20 -20 -20 -20 -20 -20 -20 -20 -20 -20 -20 -20 -20 -20 -20 -6 27 28 11 9 -20 -20 -20
-20 -20 -20 -20 -20 -20 -20 -20 -20 -20 -20 -20 -18 -20 -20 34 -20 -20 -20 -20 -20 -20 -20 -20 -19 9 17 18 -10 -3 -20 -20
-20 -20 -20 -20 -20 -20 -20 -20 -20 -20 -20 -20 -20 -20 -20 8 -18 -20 -6 -20 -20 -20 -20 -20 -20 -14 12 17 6 -17 -20 5
-20 -20 -20 -20 -20 -20 -20 -20 -20 -20 -18 -20 -20 -16 -20 -20 -20 3 15 -20 -20 -20 -20 -20 -20 -20 17 16 -16 16 -16 10
-20 -20 -20 -20 -20 -20 -20 -20 -9 -20 2 -20 -20 -20 4 -20 -20 -13 -20 -20 -20 -20 -20 -20 -20 -20 12 30 2 13 -14 -20
-20 -20 -20 -20 -20 -20 -20 -20 -18 -9 -20 -20 -13 -20 -20 -20 -20 -16 -20 -2 31 -20 -20 -20 -20 -20 17 30 0 21 20 -18
-20 -20 -20 -20 -20 -20 -20 -20 -19 -20 -20 -20 -20 7 -12 -20 -19 -20 -19 25 -17 -8 -13 -20 2 -20 28 32 -11 9 7 -20
-20 -20 -20 -20 -20 -20 -20 -20 -20 -20 -20 -20 -20 -20 -20 -20 11 -20 27 16 -20 -20 -20 -20 -20 -13 26 29 16 -16 -20 -20
-20 -20 -20 -20 -20 -20 -20 -20 -20 -20 -20 -5 -9 -20 -20 -20 -20 -10 7 27 27 -10 -17 -20 -20 17 29 32 19 -20 -20 -20
-20 -20 -20 -20 -20 -17 -20 -20 -20 -20 -20 -20 -20 -20 -20 -4 -20 -20 -20 -7 20 -2 -18 -20 -20 24 30 32 -9 -20 -20 -20
-20 -20 -20 -20 -20 -20 -20 -20 -20 -20 -20 -20 -20 -20 -20 -20 2 -20 10 21 -20 -20 21 -20 -6 14 29 30 -8 -16 -20 -20
-20 -20 -20 -20 -20 -20 -14 -4 -20 -20 -20 -20 -20 -20 -16 -20 -20 -20 2 5 1 -2 -13 -20 19 21 19 20 -1 14 -20 -20
-20 -20 -20 -20 -20 -20 -9 -19 -8 -2 0 -20 -20 -20 -17 -20 -17 -20 -10 10 13 35 8 -17 7 28 28 8 -8 -11 -20 -20
-20 -20 -20 -20 -20 -20 -20 -20 -0 -10 -20 -20 -20 -20 -20 -2 0 -9 6 7 26 37 31 23 24 27 27 10 11 7 2 -7
-20 -20 -20 -20 -20 -20 -20 -20 -20 -20 -20 -20 -20 -20 -20 -20 -20 -14 -20 -2 29 25 30 23 27 24 16 7 2 -20 10 -20
-20 -20 -20 -20 -20 -20 -20 -20 -20 -20 -20 -20 -20 -20 -16 -20 -16 -14 4 -0 30 22 31 10 12 23 26 29 28 13 -10 -18
-20 -20 -20 -20 -20 -20 -20 -20 -20 -20 -20 -20 -20 -16 -20 -20 -20 -20 -20 16 28 34 26 16 26 30 27 26 23 3 13 -20
-20 -20 -20 -20 -20 -20 -20 -20 -20 -20 -20 -20 -20 -20 10 -20 -20 -20 -20 13 27 28 28 29 28 30 33 29 23 6 -19 -20

GFSFLT2_prec_radar_108.txt.gz
Reflectivity
-20 -20 -20 -20 -20 -20 -20 -20 -20 -20 -20 -20 -20 -20 -20 -20 -20 -15 -20 -20 -20 -20 -20 -20 -20 -20 -20 -20 -17 4 -20 -20
-20 -20 -20 -20 -20 -20 -20 -20 -20 -20 -20 -20 -20 -20 -20 -20 -20 -20 -20 -20 -20 -20 -20 -20 -20 -20 -20 -20 -20 16 -20 -20
-20 -20 -20 -20 -20 -20 -20 -20 -20 -20 -20 -20 -20 -20 -20 -20 -20 10 -9 -20 -20 -20 -20 -20 -20 -20 29 34 -10 -13 25 -19
-20 -20 -20 -20 -20 -20 -20 -20 -20 -20 -20 -20 -20 -20 -20 -20 -20 -20 -20 -20 -20 -20 -20 -20 -20 -20 -20 4 21 -4 21 25
-20 -20 -20 -20 -20 -20 -20 -20 -20 -20 -20 -20 -20 -20 -20 -20 -20 -20 -20 -20 -20 -20 -20 -20 -20 -20 -20 -20 -10 -16 15 -5
-20 -20 -20 -20 -20 -20 -20 -20 -20 -20 -20 -20 -20 -20 -20 -20 -20 -20 -20 -20 -20 -20 -20 -20 -20 -20 -20 -19 -20 -18 3 -11
-20 -20 -20 -20 -20 -20 -20 -20 -20 -20 -20 -20 -20 -20 -20 -20 -20 -20 -20 -20 -20 -20 -20 -20 -20 -20 -20 -20 -19 -1 24 30
-20 -20 -20 -20 -20 -20 -20 -20 -20 -20 -20 -20 -20 -20 -20 -20 -20 -20 -20 -20 -20 -20 -20 -20 -20 -20 -20 -20 -20 -11 23 29
-20 -20 -20 -20 -20 -20 -20 -20 -20 -20 -20 -20 -20 -20 -20 -20 -20 -20 -20 -20 -20 -20 -20 -20 -20 -20 15 -20 -20 -20 26 30
-20 -20 -20 -20 -20 -20 -20 -20 -20 -20 -20 -20 -20 -20 -20 -20 -20 -20 -20 -20 -20 -20 -20 -20 -20 -20 -20 -20 -20 -20 19 28
-20 -20 -20 -20 -20 -20 -20 -20 -20 -20 -20 -20 -20 -20 -20 -20 -20 -20 -20 -20 -20 -20 -20 -20 -20 6 22 -12 -20 -20 -15 28
-20 -20 -20 -20 -20 -20 -20 -20 -20 -20 -20 -20 -20 -20 -20 -20 -20 -20 -20 -20 -16 8 10 -8 -17 18 9 -19 17 -20 22 30
-20 -20 -20 -20 -20 -20 -20 -20 -20 -20 -20 -20 -20 -20 -16 -20 -20 -20 -20 -20 -20 -4 3 17 13 5 -2 -6 -9 -20 14 28
-20 -20 -20 -20 -20 -20 -20 -20 -20 -20 -20 -20 -20 -20 -20 -20 -20 -20 -20 -15 7 -15 -11 -20 9 2 -19 2 21 18 16 23
-20 -20 -20 -20 -20 -20 -20 -20 -20 -20 -20 -20 -20 -20 -20 -20 -20 -20 -20 -12 5 9 -18 -20 -18 -14 -19 -1 6 11 22 17
-20 -20 -20 -20 -17 -9 -20 -20 -20 -20 -20 -20 -20 -18 -20 -20 -20 -20 -20 -20 -17 -20 6 -14 8 -2 -20 13 12 -20 -3 -1
-20 -9 10 -8 -18 22 28 -19 -20 -20 -20 -20 -20 -20 -20 -20 -20 -20 -20 -20 -20 -9 16 18 7 5 8 21 3 -20 29 11
-20 -20 -6 -13 6 -8 3 -1 -19 -20 -20 -20 -20 -20 -20 2 -15 -0 7 1 -16 -9 1 20 2 -4 14 36 32 7 19 -20
-20 -20 -20 -20 -20 -10 -10 15 -15 -20 -20 -20 -20 -20 -20 -17 3 1 -8 4 -3 -2 15 14 14 22 25 33 22 5 0 6
-20 -20 -20 -20 -20 -20 -16 -9 29 -19 -20 -20 -20 -20 -20 -20 -18 -11 -19 2 -20 5 13 6 19 35 31 35 22 10 3 21

GFSFLT2_prec_radar_114.txt.gz
Reflectivity
-20 -20 -20 -20 -20 -20 -20 -20 -20 -20 -20 -20 -20 -20 -20 -20 -20 -20 -20 -20 -20 -20 -20 -20 -20 -20 -20 -20 -20 -20 -20 -20
-20 -20 -20 -20 -20 -20 -20 -20 -20 -20 -20 -20 -20 -20 -20 -20 -20 -20 -20 -20 -20 -20 -20 -20 -20 -20 -20 -20 -20 -20 -20 -20
-20 -20 -20 -20 -20 -20 -20 -20 -20 -20 -20 -20 -20 -20 -20 -20 -20 -20 -20 -20 -20 -20 -20 -20 -20 -20 -20 -20 -20 -20 -18 -16
-20 -20 -20 -20 -20 -20 -20 -20 -20 -20 -20 -20 -20 -20 -20 -20 -20 -20 -20 -20 -12 -20 -20 -20 -20 -20 -20 -20 -6 31 32 22
-20 -20 -20 -20 -20 -20 -20 -20 -20 -20 -20 -20 -20 -20 -20 -20 -20 -20 -20 -20 -20 -20 -20 -20 -20 -20 -20 -20 -20 11 -12 17
-20 -20 -20 -20 -20 -20 -20 -20 -20 -20 -20 -20 -20 -20 -20 -20 -20 -20 -20 -20 -20 -20 -20 -20 -20 -20 -20 -20 -20 -8 -14 -17
-20 -20 -20 -20 -20 -20 7 -20 -20 -20 -20 -20 -20 -20 -20 -20 -20 -20 -20 -20 -20 -20 -20 -20 -20 -20 -20 -20 -20 -20 -20 -20
-20 -20 -20 -20 -20 -20 -20 -20 -20 -20 -20 -20 -20 -20 -20 -20 -20 -20 -20 -20 -20 -20 -20 -20 -20 -20 -20 -20 -20 -20 -20 27
-20 -20 -20 -20 -20 -20 -20 -20 -20 -20 -20 -20 -20 -20 -20 -20 -20 -17 -19 -20 -20 -20 -20 -20 -20 -20 -20 -20 -20 -20 -20 -7
-20 -20 -20 -20 -20 -20 -20 -20 -20 -20 -20 -20 -20 -20 -20 -20 -20 -5 4 2 -20 -20 -20 -20 -20 -20 -20 -20 -20 -20 -20 -20
-20 -20 -20 -20 -20 -20 -20 -20 -20 -20 -20 -20 -20 -20 -20 -20 -20 -18 -8 6 -20 -20 -20 -20 -20 -20 -20 -20 -20 -20 -20 -14
-20 -20 -20 -20 -20 -6 -7 -20 -20 -20 -20 -20 -20 -20 -20 -20 -20 -20 -12 -1 -20 -20 -20 -20 -20 -20 -20 -20 -20 -20 -20 -20
-20 -20 -20 -20 -20 -20 -20 -20 -20 -20 -20 -20 -20 -20 -20 -20 -20 -20 -20 -20 -20 -20 -2 -20 18 -20 -20 -15 -20 -20 4 10
-20 -20 -20 -20 -20 3 14 -20 -20 -20 -20 -20 -20 -20 -20 -20 -20 -20 -20 -20 -20 -20 -19 -20 -20 -10 -6 -3 6 -15 17 16
-20 -20 -20 3 8 -16 1 -17 -20 -20 -20 -20 -20 -20 -20 -20 -20 -20 -20 -20 -20 -20 -20 -19 -2 -20 11 6 -11 10 -16 4
-20 -20 -13 -20 -20 -19 -12 -20 -20 -20 -20 -20 -20 -20 -20 -20 -20 -20 -20 -6 3 -16 9 1 8 9 12 13 19 -19 8 -20
-20 -20 -20 -20 -20 6 12 -17 27 -5 -20 -0 -19 -16 -20 -20 -20 -20 -4 -11 -2 -1 6 7 -2 1 12 2 7 -18 8 -6
-20 -20 -20 -20 -20 9 8 -13 -20 4 -10 -20 -20 -20 -20 -20 -20 4 0 -18 -7 -19 -5 1 10 10 14 9 -9 11 17 2
-11 -20 -20 -20 -20 -3 11 7 -17 5 -16 -20 13 10 -8 -9 -8 2 -20 -20 -4 -9 -1 -8 7 10 11 7 13 15 13 17
-20 -20 -20 -20 -14 20 15 17 6 13 -10 -20 -20 -19 -20 -20 -8 -20 -20 -20 4 15 13 10 17 11 11 12 9 8 10 22

GFSFLT2_prec_radar_117.txt.gz
Reflectivity
-20 -20 -20 -20 -20 -20 -20 -20 -20 -20 -20 -20 -20 -20 -20 -20 -20 -20 -20 -20 -20 -20 -20 -20 -20 -20 -20 -20 -20 -15 -13 -20
-20 -20 -4 -1 -2 -20 -20 -20 -20 -20 -20 -20 -20 -20 -20 -20 -20 -20 -20 -20 -20 -20 -20 -20 -20 -20 -20 -20 -19 20 -20 -20
-20 -20 -20 -17 -20 -12 -20 -20 -20 -20 -20 -20 -20 -20 -20 -20 -20 -20 -20 -20 -20 -20 -20 -20 -20 -20 -20 -20 -4 -16 31 -13
-20 -20 -20 -20 -20 -19 -11 -5 -20 -20 -20 -20 -2 -20 -20 -20 -20 -20 -20 -20 -20 -20 -20 -20 -20 -20 -20 -20 -14 -3 2 33
-20 -20 -20 -20 -20 -20 5 4 -20 -11 2 -6 -1 -8 -20 -20 -20 -20 -20 -20 -20 -20 -20 -20 -20 -20 -20 -16 -3 -14 -3 -5
-20 -20 -20 -20 -20 -20 -1 6 2 -20 -7 -0 -2 -20 -19 -20 -20 -20 -20 -20 -20 -20 -20 -20 -20 -20 -20 -20 -20 14 -20 -20
-20 -20 -20 -20 -20 -20 -3 -1 -8 -11 -20 -20 -10 -20 -20 -15 -20 -20 -20 -20 -20 -20 -20 -20 -20 -20 -20 -20 -20 -20 -20 -20
-20 -20 -20 -20 -20 -20 -20 -8 -18 -17 -20 -20 -20 -20 -20 -20 -20 -14 -20 -20 -20 -20 -20 -20 -20 -20 -20 -20 -20 -20 -20 4
-20 -20 -11 -20 -20 -20 -20 -20 -20 -20 -20 -20 -3 -20 -20 -20 -20 -13 -4 -20 -16 -20 -20 -20 -20 -20 -20 -20 -20 -20 -20 -19
-20 -20 -20 -20 -20 -20 -20 -20 -20 -20 -20 -20 7 -20 -20 -20 -20 3 3 -20 -5 -12 -20 -20 -20 -20 -20 -20 -20 -20 -20 -20
-20 -20 -20 -20 -20 -20 -20 -20 -20 -20 -20 -20 -2 -20 -20 -20 -14 -19 -20 -20 -11 -20 -13 -20 -20 -20 -20 -20 -13 -20 -14 -20
-20 -20 -20 -20 -20 -3 -9 -20 -20 -20 -20 -20 -20 -20 -20 -20 -20 -20 -6 -18 7 -17 -20 -20 -20 -20 -20 -20 -1 -1 2 -4
-20 -20 -20 -20 -20 -9 -20 -13 -20 -20 -20 -20 -20 -20 -20 -20 -14 -9 -5 -20 2 12 -20 -1 -7 -4 -0 -3 0 4 0 -8
-8 5 -20 -20 -20 -15 -4 -7 -17 -18 -20 -20 -5 -20 -20 -20 -20 -0 0 -1 9 12 4 -20 -20 -14 -20 -20 -20 -2 -2 2
-20 -2 -6 -20 -13 -11 24 -17 5 -8 -14 -20 -20 -20 -20 -20 -20 -20 -20 -13 7 5 -2 -20 -13 -18 -15 -17 -12 -10 -6 -20
-20 -14 14 -2 28 -20 -20 -20 -20 -8 -6 -20 7 -20 -20 -20 -20 -20 -20 -20 -20 -20 3 -1 -14 -4 -4 6 -10 -16 -20 -20
-20 -18 3 3 -19 -2 -14 -11 -5 8 8 -20 -20 4 -20 -20 -20 -20 -20 -20 -20 -20 -20 -20 -0 -2 -6 -3 -2 -15 -10 -20
-5 -14 -20 -20 -5 20 2 3 4 -5 5 -8 -14 -20 -20 -20 -20 -20 -20 -8 -10 -1 -10 -6 0 -1 -9 -8 -5 -6 -11 -10
-20 -20 -20 -20 10 2 12 -19 -11 -9 -20 -20 -20 2 -20 -20 -20 -20 -20 -20 -20 -2 0 0 0 -0 -4 5 -0 8 8 -15
-8 -10 -7 -20 -16 -15 -20 -5 -15 -4 20 -19 -6 -7 -20 25 24 -20 -20 -8 -20 4 -20 -5 -5 -1 -16 -2 -3 -16 -20 7